Location: Briarwood
(39.0812°N, 76.8511°W)
Time: 14:37:31
(UTC+00:00)

Daily predictions for brighter satellites

Satellite Brightness Start Highest point End
(mag) Time Altitude Azimuth Time Altitude Azimuth Time Altitude Azimuth
ATLAS CENTAUR R/B 3.0 23:39:51 10° NW 23:44:52 77° NE 23:52:47 10° SE
Cosmos 2219 Rocket 2.2 23:41:48 10° SSW 23:47:28 82° ESE 23:53:10 10° NNE
ACS3 Solar Sail 3.6 23:45:41 10° E 23:48:46 14° ENE 23:51:51 10° NNE
SeaSat 1 4.4 23:44:39 10° N 23:49:00 33° NW 23:53:21 10° WSW
Cosmos 44 Rocket 4.2 23:46:07 10° N 23:50:16 29° NE 23:54:19 10° ESE
Cosmos 1725 Rocket 4.0 23:44:31 10° S 23:50:41 88° E 23:56:54 10° N
Iridium 4 Rocket 3.9 23:48:04 10° NNE 23:51:38 27° E 23:55:11 10° SE
Cosmos 1743 3.0 23:48:21 10° SSE 23:51:41 38° E 23:55:02 10° NNE
Cosmos 1818 3.6 23:47:43 10° SSW 23:53:08 76° ESE 23:58:37 10° NE
Cosmos 2333 Rocket 3.4 23:47:36 10° SW 23:53:10 50° WNW 23:58:47 10° NNE
Meteor PRIRODA 4.4 23:51:19 10° SE 23:54:09 27° ENE 23:56:59 10° NNE
Intercosmos 24 3.9 23:50:55 10° N 23:54:33 89° ENE 23:59:05 10° S
